Waarnemingen

Advertentie
Mijn weer
Eindhoven, Nederland (6370): temperatuur & dauwpunt: 20.03.2017 00:00:00 - 26.03.2017 00:00:00 (CET)Eindhoven, Nederland (6370): temperatuur 5cm: 20.03.2017 00:00:00 - 26.03.2017 00:00:00 (CET)Eindhoven, Nederland (6370): windsnelheid & windstoten: 20.03.2017 00:00:00 - 26.03.2017 00:00:00 (CET)Eindhoven, Nederland (6370): windrichting: 20.03.2017 00:00:00 - 26.03.2017 00:00:00 (CET)Eindhoven, Nederland (6370): luchtdruk: 20.03.2017 00:00:00 - 26.03.2017 00:00:00 (CET)Eindhoven, Nederland (6370): zicht: 20.03.2017 00:00:00 - 26.03.2017 00:00:00 (CET)Eindhoven, Nederland (6370): neerslag: 20.03.2017 00:00:00 - 26.03.2017 00:00:00 (CET)
Datum & Tijd tt [°C] td [°C] tt 5cm [°C] ff [km/u] ff [kn] fx [km/u] fx [kn] dd ppp [hPa] vv [km] rr [mm]
26.03.2017 00:00:00 8,1 1,1 6,9 22 12 32 18 NO 1025,2 10 0,0
25.03.2017 23:00:00 8,1 0,2 7,1 22 12 32 18 NO 1025,4 10 0,0
25.03.2017 22:00:00 9,0 -0,4 7,7 21 11 32 18 NO 1025,6 10 0,0
25.03.2017 21:00:00 9,5 -1,1 8,3 22 12 32 18 NO 1025,8 10 0,0
25.03.2017 20:00:00 10,1 -2,4 8,4 16 9 32 18 NO 1025,6 10 0,0
25.03.2017 19:00:00 12,7 -4,0 11,2 21 11 40 21 NO 1025,2 10 0,0
25.03.2017 18:00:00 14,0 -5,0 13,6 24 13 47 25 ONO 1025,1 10 0,0
25.03.2017 17:00:00 14,7 -5,5 15,1 29 16 47 25 ONO 1025,4 10 0,0
25.03.2017 16:00:00 15,1 -1,8 16,1 31 17 43 23 NO 1026,1 10 0,0
25.03.2017 15:00:00 15,4 -1,1 16,9 29 16 50 27 ONO 1026,8 10 0,0
25.03.2017 14:00:00 15,5 -2,2 17,0 29 16 43 23 ONO 1027,8 10 0,0
25.03.2017 13:00:00 14,6 -1,0 16,5 29 16 47 25 ONO 1028,8 10 0,0
25.03.2017 12:00:00 13,9 0,3 15,7 29 16 43 23 NO 1029,6 10 0,0
25.03.2017 11:00:00 12,3 1,8 13,9 21 11 32 18 ONO 1030,2 10 0,0
25.03.2017 10:00:00 11,0 1,2 12,7 18 10 32 18 NO 1030,7 10 0,0
25.03.2017 09:00:00 8,2 1,9 8,8 18 10 29 16 NO 1030,9 10 0,0
25.03.2017 08:00:00 5,7 1,3 5,4 15 8 22 12 NO 1030,8 10 0,0
25.03.2017 07:00:00 3,0 0,5 1,9 13 7 18 10 NO 1030,8 10 0,0
25.03.2017 06:00:00 2,5 0,0 1,3 11 6 18 10 NO 1030,8 10 0,0
25.03.2017 05:00:00 4,8 0,8 3,1 13 7 22 12 ONO 1030,9 10 0,0
25.03.2017 04:00:00 4,2 0,6 3,2 16 9 22 12 NO 1030,9 10 0,0
25.03.2017 03:00:00 5,0 0,7 3,4 16 9 25 14 NO 1031,1 10 0,0
25.03.2017 02:00:00 5,6 0,9 4,4 16 9 25 14 NO 1031,5 10 0,0
25.03.2017 01:00:00 6,9 1,0 5,6 15 8 22 12 ONO 1031,5 10 0,0
25.03.2017 00:00:00 7,0 1,3 5,6 15 8 22 12 NO 1031,6 10 0,0
24.03.2017 23:00:00 8,5 1,7 7,2 18 10 29 16 NO 1031,6 10 0,0
24.03.2017 22:00:00 9,1 2,1 7,7 21 11 32 18 NO 1031,2 10 0,0
24.03.2017 21:00:00 9,1 2,7 7,3 18 10 29 16 NO 1030,6 10 0,0
24.03.2017 20:00:00 10,3 2,9 7,1 15 8 29 16 NO 1029,9 10 0,0
24.03.2017 19:00:00 12,1 2,8 10,6 16 9 36 19 ONO 1029,6 10 0,0
24.03.2017 18:00:00 13,2 3,3 12,8 24 13 40 21 ONO 1029,0 10 0,0
24.03.2017 17:00:00 13,8 3,6 14,2 26 14 40 21 NO 1028,5 10 0,0
24.03.2017 16:00:00 14,2 4,5 15,3 21 11 32 18 ONO 1028,4 10 0,0
24.03.2017 15:00:00 13,9 4,1 15,6 21 11 36 19 O 1028,4 10 0,0
24.03.2017 14:00:00 12,5 3,5 13,7 26 14 40 21 ONO 1028,4 10 0,0
24.03.2017 13:00:00 12,1 3,7 13,7 22 12 36 19 ONO 1029,2 10 0,0
24.03.2017 12:00:00 10,8 3,7 12,4 22 12 36 19 ONO 1029,0 10 0,0
24.03.2017 11:00:00 10,3 3,8 12,0 21 11 36 19 ONO 1028,6 10 0,0
24.03.2017 10:00:00 8,7 3,2 8,9 21 11 32 18 O 1028,7 10 0,0
24.03.2017 09:00:00 7,9 3,5 7,6 18 10 32 18 ONO 1027,6 10 0,0
24.03.2017 08:00:00 7,1 3,6 7,0 22 12 32 18 ONO 1026,0 7 0,0
24.03.2017 07:00:00 5,9 3,7 5,1 18 10 29 16 ONO 1025,3 5 0,0
24.03.2017 06:00:00 5,9 3,7 5,0 16 9 29 16 ONO 1025,0 5 0,0
24.03.2017 05:00:00 6,0 3,9 4,8 15 8 29 16 ONO 1025,0 5 0,0
24.03.2017 04:00:00 5,6 3,8 4,8 15 8 25 14 ONO 1024,5 4,8 0,0
24.03.2017 03:00:00 5,4 3,7 4,4 13 7 25 14 NO 1024,3 5 0,0
24.03.2017 02:00:00 6,2 4,1 5,2 15 8 36 19 ONO 1024,0 6 0,0
24.03.2017 01:00:00 6,5 4,0 5,6 21 11 32 18 NO 1022,7 7 0,0
24.03.2017 00:00:00 7,1 3,9 6,2 21 11 40 21 NO 1022,4 10 0,0
23.03.2017 23:00:00 8,0 4,1 7,1 28 15 40 21 NO 1021,1 10 0,0
23.03.2017 22:00:00 8,9 4,2 7,9 22 12 40 21 NO 1020,4 10 0,0
23.03.2017 21:00:00 9,8 3,9 8,9 26 14 36 19 NO 1019,5 10 0,0
23.03.2017 20:00:00 10,5 4,2 9,1 18 10 36 19 NO 1018,8 10 0,0
23.03.2017 19:00:00 11,6 4,2 10,4 22 12 40 21 NO 1017,8 10 0,0
23.03.2017 18:00:00 13,2 4,2 12,7 24 13 36 19 NO 1017,0 10 0,0
23.03.2017 17:00:00 14,3 3,1 14,8 18 10 32 18 ONO 1016,6 10 0,0
23.03.2017 16:00:00 14,0 2,9 14,7 21 11 32 18 ONO 1016,1 10 0,0
23.03.2017 15:00:00 13,9 3,0 14,7 18 10 32 18 O 1016,1 10 0,0
23.03.2017 14:00:00 13,7 2,9 15,5 21 11 32 18 ONO 1015,9 10 0,0
23.03.2017 13:00:00 13,5 2,6 16,1 21 11 36 19 ONO 1015,9 10 0,0
23.03.2017 12:00:00 12,4 3,0 14,8 22 12 36 19 O 1015,8 10 0,0
23.03.2017 11:00:00 11,1 2,9 13,0 21 11 40 21 O 1015,8 10 0,0
23.03.2017 10:00:00 10,4 3,8 11,8 16 9 25 14 O 1015,8 10 0,0
23.03.2017 09:00:00 8,4 3,5 9,2 13 7 25 14 O 1015,4 10 0,0
23.03.2017 08:00:00 6,1 2,4 6,0 9 5 18 10 O 1015,2 10 0,0
23.03.2017 07:00:00 4,3 1,6 2,3 9 5 18 10 ONO 1014,9 10 0,0
23.03.2017 06:00:00 4,3 1,8 1,2 11 6 18 10 ONO 1014,2 10 0,0
23.03.2017 05:00:00 4,8 2,2 1,0 8 4 11 6 O 1014,2 10 0,0
23.03.2017 04:00:00 1,9 0,4 -2,6 5 3 7 4 O 1014,4 10 0,0
23.03.2017 03:00:00 5,1 2,3 1,3 4 2 14 8 OZO 1014,1 10 0,0
23.03.2017 02:00:00 5,9 2,1 3,7 11 6 14 8 O 1013,8 10 0,0
23.03.2017 01:00:00 5,2 2,0 1,7 5 3 14 8 O 1014,1 10 0,0
23.03.2017 00:00:00 3,4 1,2 -1,3 2 1 11 6 - 1013,9 10 0,0
22.03.2017 23:00:00 6,4 2,2 3,6 5 3 14 8 OZO 1013,9 10 0,0
22.03.2017 22:00:00 7,1 2,3 5,2 8 4 14 8 OZO 1013,7 10 0,0
22.03.2017 21:00:00 8,1 2,4 6,7 9 5 18 10 OZO 1013,8 10 0,0
22.03.2017 20:00:00 8,4 2,3 6,1 8 4 18 10 OZO 1013,5 10 0,0
22.03.2017 19:00:00 9,3 2,0 7,7 11 6 25 14 OZO 1013,0 10 0,0
22.03.2017 18:00:00 10,3 2,1 9,1 15 8 29 16 ZO 1012,5 10 0,0
22.03.2017 17:00:00 10,9 2,0 10,9 16 9 32 18 OZO 1012,3 10 0,0
22.03.2017 16:00:00 11,1 1,9 11,5 16 9 29 16 ZO 1012,4 10 0,0
22.03.2017 15:00:00 10,8 1,9 11,0 18 10 32 18 OZO 1012,5 31 0,0
22.03.2017 14:00:00 12,1 1,1 13,4 16 9 29 16 ZZO 1012,5 10 0,0
22.03.2017 13:00:00 11,1 1,3 12,0 16 9 36 19 ZZO 1013,1 10 0,0
22.03.2017 12:00:00 11,8 2,2 13,2 18 10 29 16 ZZO 1013,4 10 0,0
22.03.2017 11:00:00 10,1 0,7 12,0 16 9 29 16 ZZO 1013,8 10 0,0
22.03.2017 10:00:00 8,5 -0,2 10,0 11 6 18 10 ZZO 1013,9 10 0,0
22.03.2017 09:00:00 5,9 -0,4 6,4 11 6 18 10 ZZO 1013,9 10 0,0
22.03.2017 08:00:00 3,0 -0,8 1,8 11 6 18 10 ZZO 1013,6 10 0,0
22.03.2017 07:00:00 0,3 -2,1 -3,6 8 4 14 8 ZZO 1013,4 10 0,0
22.03.2017 06:00:00 -0,2 -2,4 -3,5 9 5 14 8 ZZO 1013,5 10 0,0
22.03.2017 05:00:00 0,4 -1,8 -3,6 9 5 14 8 ZO 1013,7 10 0,0
22.03.2017 04:00:00 -1,5 -3,6 -4,3 5 3 11 6 Z 1014,1 10 0,0
22.03.2017 03:00:00 0,6 -1,7 -2,7 5 3 7 4 ZZO 1013,8 10 0,0
22.03.2017 02:00:00 0,9 -1,8 -2,5 5 3 11 6 ZZO 1013,9 10 0,0
22.03.2017 01:00:00 2,2 -1,7 -2,4 5 3 11 6 ZZO 1013,9 10 0,0
22.03.2017 00:00:00 2,3 -2,3 -1,8 5 3 14 8 Z 1014,2 10 0,0
21.03.2017 23:00:00 2,5 -2,0 -0,2 11 6 14 8 Z 1013,9 10 0,0
21.03.2017 22:00:00 2,1 -1,9 -1,3 9 5 11 6 ZZO 1013,6 10 0,0
21.03.2017 21:00:00 2,6 -1,2 -1,9 5 3 7 4 ZZO 1013,6 10 0,0
21.03.2017 20:00:00 3,6 -2,0 -1,1 2 1 11 6 - 1013,5 10 0,0
21.03.2017 19:00:00 6,7 -2,5 4,2 8 4 25 14 WNW 1013,0 10 0,0
21.03.2017 18:00:00 8,7 -2,9 8,2 22 12 32 18 W 1012,2 10 0,0
21.03.2017 17:00:00 9,2 -2,4 9,4 16 9 32 18 W 1011,8 10 0,0
21.03.2017 16:00:00 9,2 -1,1 9,3 24 13 40 21 W 1011,5 10 0,0
21.03.2017 15:00:00 9,4 -0,3 10,1 21 11 40 21 W 1011,1 10 0,0
21.03.2017 14:00:00 9,6 0,4 10,0 26 14 40 21 W 1010,6 10 0,0
21.03.2017 13:00:00 9,5 0,2 9,7 24 13 43 23 W 1010,2 10 0,0
21.03.2017 12:00:00 10,6 2,6 10,8 21 11 43 23 W 1009,5 10 0,0
21.03.2017 11:00:00 10,1 4,0 10,2 26 14 50 27 WZW 1009,0 10 0,0
21.03.2017 10:00:00 8,9 4,7 8,7 21 11 36 19 W 1008,5 10 0,0
21.03.2017 09:00:00 8,7 6,3 8,0 24 13 36 19 WZW 1007,7 10 0,7
21.03.2017 08:00:00 8,4 7,0 8,0 15 8 22 12 ZW 1007,0 10 0,0
21.03.2017 07:00:00 6,8 5,0 5,9 15 8 25 14 ZW 1006,7 10 0,0
21.03.2017 06:00:00 8,4 5,5 7,7 16 9 25 14 WZW 1006,7 10 0,0
21.03.2017 05:00:00 8,3 6,3 7,5 18 10 29 16 WZW 1006,4 10 0,0
21.03.2017 04:00:00 9,2 7,7 8,6 15 8 29 16 WZW 1005,9 10 0,0
21.03.2017 03:00:00 9,8 8,2 9,1 13 7 29 16 WZW 1005,8 10 0,1
21.03.2017 02:00:00 9,9 8,6 9,4 18 10 40 21 ZW 1005,5 10 0,0
21.03.2017 01:00:00 9,7 8,6 9,3 22 12 32 18 ZW 1005,5 10 0,3
21.03.2017 00:00:00 9,5 8,4 9,3 21 11 43 23 ZZW 1005,3 8 0,1
20.03.2017 23:00:00 9,8 8,1 9,4 29 16 47 25 ZW 1005,1 10 0,2
20.03.2017 22:00:00 10,0 8,3 9,5 28 15 54 29 ZW 1005,1 10 0,0
20.03.2017 21:00:00 11,0 7,1 10,5 31 17 43 23 ZW 1005,0 10 0,0
20.03.2017 20:00:00 10,9 7,2 10,3 29 16 43 23 ZZW 1004,9 10 0,0
20.03.2017 19:00:00 10,8 7,8 10,0 24 13 40 21 ZZW 1005,3 10 0,1
20.03.2017 18:00:00 10,0 8,7 9,8 31 17 54 29 ZW 1006,0 3,5 0,0
20.03.2017 17:00:00 11,2 7,6 10,9 34 18 54 29 ZW 1005,9 10 0,0
20.03.2017 16:00:00 11,7 7,7 11,4 34 18 58 31 ZW 1005,9 10 0,0
20.03.2017 15:00:00 11,6 8,2 11,4 39 21 54 29 ZW 1006,3 10 0,0
20.03.2017 14:00:00 11,6 8,3 11,4 31 17 54 29 ZW 1006,3 10 0,0
20.03.2017 13:00:00 11,8 8,2 11,5 29 16 47 25 ZW 1006,9 10 0,0
20.03.2017 12:00:00 11,0 9,0 11,0 24 13 43 23 ZZW 1007,3 10 0,0
20.03.2017 11:00:00 10,6 9,6 11,0 26 14 43 23 ZZW 1007,5 6 0,5
20.03.2017 10:00:00 9,9 9,1 10,0 28 15 43 23 ZZW 1007,7 2,8 0,6
20.03.2017 09:00:00 9,7 8,5 9,6 28 15 40 21 ZZW 1007,9 2,5 0,0
20.03.2017 08:00:00 9,9 8,5 9,6 28 15 40 21 ZW 1008,2 10 0,0
20.03.2017 07:00:00 9,5 8,3 9,2 22 12 32 18 ZW 1008,3 10 0,0
20.03.2017 06:00:00 9,4 8,5 9,1 22 12 32 18 ZZW 1007,9 6 0,1
20.03.2017 05:00:00 9,4 8,6 9,2 22 12 29 16 ZZW 1008,1 3,5 0,2
20.03.2017 04:00:00 9,6 8,9 9,4 22 12 40 21 ZW 1008,3 2,7 0,2
20.03.2017 03:00:00 10,3 8,2 10,0 26 14 36 19 ZW 1008,3 10 0,0
20.03.2017 02:00:00 10,2 8,2 9,8 26 14 36 19 ZW 1008,6 10 0,0
20.03.2017 01:00:00 9,9 8,7 9,6 21 11 32 18 ZZW 1008,8 10 0,1
20.03.2017 00:00:00 10,0 8,8 9,8 22 12 36 19 ZW 1008,8 4,4 0,1

tt = temperatuur
td = dauwpunt
tt 5cm = temperatuur 5cm
ff = windsnelheid
fx = windstoten
dd = windrichting
ppp = luchtdruk
vv = zicht
rr = neerslag

Weerstations in de omgeving